Starlink 4302

operational
NORAD ID: 53481 Int'l Des: 2022-099 Owner: SPXS Country: US Constellation: starlink
LEOCIRCULARRETROGRADESSO

Über Starlink 4302

Beschreibung wird geladen...

Live-Position

3D-Globus wird geladen...

Nächste Überflüge

Höhenverlauf

Altitude vs Time

uPlot chart will show altitude changes over time

Zweizeiliger Elementsatz

1 53481U 22099S 25350.92135984 -.00000050 00000-0 63251-6 0 9998
2 53481 97.6021 109.1816 0001315 95.5975 264.5400 15.01259782183568
Epoch: 16. Dez. 2025 • Age: 14 hours

Aktueller Status

Höhe 565.9 km
Geschwindigkeit 7.58 km/s
Subsatellitenpunkt 0.51°N, 27.85°E
Startdatum 12. Aug. 2022
Alter 3.3 years
Typ internet

Technische Details

Klassifizierung Payload
Masse 300.00 kg
Trockenmasse 275.00 kg
Gesamtmasse 300.00 kg
Länge 0.20 m
Durchmesser 2.80 m
Spannweite 9.00 m
Form Box + pan
Hersteller SPXS
Bus-Typ Starlink
Phasenstatus In Orbit
Besitzer/Staat SPXS/US

Große Konstellationen

Loading constellations...